FW3182 Weather Reports


time (UTC)temp
C
wind
direction
speed
KPH
gust
KPH
rain 1hr
cm
rain 24hr
cm
rain mn
cm
humidity
%
barometer
mb
20260510202703 22 63 0.0 4.8 0.00 0.00 0.00 51 1016.9
20260510202203 22 55 1.6 4.8 0.00 0.00 0.00 50 1016.8
20260510201703 23 353 1.6 8.0 0.00 0.00 0.00 49 1016.9
20260510201203 23 267 0.0 1.6 0.00 0.00 0.00 50 1017.0
20260510200704 22 232 1.6 11.3 0.00 0.00 0.00 53 1017.1
20260510200204 22 19 3.2 9.7 0.00 0.00 0.00 50 1017.1
20260510195704 22 282 3.2 8.0 0.00 0.00 0.00 48 1016.9
20260510195203 22 299 3.2 11.3 0.00 0.00 0.00 50 1016.8
20260510194703 22 131 3.2 8.0 0.00 0.00 0.00 51 1016.8
20260510194204 22 295 3.2 9.7 0.00 0.00 0.00 53 1016.7
20260510193704 22 15 6.4 14.5 0.00 0.00 0.00 50 1016.6
20260510193203 22 28 4.8 16.1 0.00 0.00 0.00 51 1016.7
20260510192703 22 323 1.6 9.7 0.00 0.00 0.00 53 1017.0
20260510192203 22 313 3.2 12.9 0.00 0.00 0.00 54 1017.0
20260510191703 22 328 1.6 8.0 0.00 0.00 0.00 56 1017.0
20260510191203 22 4 3.2 11.3 0.00 0.00 0.00 53 1017.0
20260510190704 22 41 4.8 16.1 0.00 0.00 0.00 54 1017.1
20260510190204 21 347 3.2 11.3 0.00 0.00 0.00 55 1017.0
20260510185704 21 31 4.8 20.9 0.00 0.00 0.00 55 1016.9
20260510184704 22 15 3.2 11.3 0.00 0.00 0.00 55 1017.0
20260510184203 22 289 1.6 8.0 0.00 0.00 0.00 57 1017.0
20260510183704 22 338 0.0 1.6 0.00 0.00 0.00 59 1016.9
20260510183203 22 32 1.6 3.2 0.00 0.00 0.00 57 1016.9
20260510182203 22 31 3.2 9.7 0.00 0.00 0.00 59 1016.9
20260510181703 22 59 0.0 8.0 0.00 0.00 0.00 60 1016.9
20260510181204 21 57 0.0 3.2 0.00 0.00 0.00 58 1016.8
20260510180704 21 59 3.2 8.0 0.00 0.00 0.00 59 1016.6
20260510175704 21 86 4.8 9.7 0.00 0.00 0.00 59 1016.7
20260510175203 21 338 8.0 19.3 0.00 0.00 0.00 58 1016.6
20260510174203 21 60 4.8 19.3 0.00 0.00 0.00 59 1016.5
20260510173703 21 90 3.2 11.3 0.00 0.00 0.00 61 1016.4
20260510173203 20 47 4.8 9.7 0.00 0.00 0.00 60 1016.4
20260510172703 20 3 4.8 14.5 0.00 0.00 0.00 61 1016.4
20260510172204 20 352 3.2 14.5 0.00 0.00 0.00 64 1016.5
20260510170704 20 279 4.8 16.1 0.00 0.00 0.00 66 1016.4
20260510170204 20 37 8.0 16.1 0.00 0.00 0.00 65 1016.3
20260510165704 20 60 3.2 16.1 0.00 0.00 0.00 66 1016.2
20260510165204 19 38 4.8 14.5 0.00 0.00 0.00 67 1016.1
20260510164704 19 42 8.0 19.3 0.00 0.00 0.00 68 1016.1
20260510164204 19 32 8.0 22.5 0.00 0.00 0.00 69 1016.2
20260510163704 19 14 6.4 14.5 0.00 0.00 0.00 69 1016.0
20260510163204 19 43 6.4 14.5 0.00 0.00 0.00 70 1016.0
20260510162204 19 35 6.4 16.1 0.00 0.00 0.00 69 1016.0
20260510161704 19 21 6.4 16.1 0.00 0.00 0.00 70 1016.0
20260510161204 19 353 4.8 14.5 0.00 0.00 0.00 71 1015.9
20260510160704 19 37 4.8 12.9 0.00 0.00 0.00 72 1015.8
20260510160204 19 56 3.2 16.1 0.00 0.00 0.00 71 1015.7
20260510155704 19 59 4.8 11.3 0.00 0.00 0.00 71 1015.5
20260510155204 19 8 3.2 8.0 0.00 0.00 0.00 72 1015.6
20260510154703 19 35 6.4 14.5 0.00 0.00 0.00 71 1015.4
20260510154203 19 44 4.8 11.3 0.00 0.00 0.00 72 1015.3
20260510152704 19 350 1.6 4.8 0.00 0.00 0.00 72 1015.3
20260510151704 19 37 1.6 8.0 0.00 0.00 0.00 71 1015.3
20260510150703 19 29 1.6 4.8 0.00 0.00 0.00 74 1015.5
20260510150203 19 71 3.2 4.8 0.00 0.00 0.00 73 1015.5
20260510145703 19 340 0.0 4.8 0.00 0.00 0.00 73 1015.5
20260510145204 19 43 1.6 9.7 0.00 0.00 0.00 74 1015.5
20260510144704 19 230 0.0 8.0 0.00 0.00 0.00 74 1015.5
20260510143703 20 317 1.6 4.8 0.00 0.00 0.00 74 1015.5
20260510143203 20 303 1.6 4.8 0.00 0.00 0.00 73 1015.5
20260510142704 20 286 0.0 1.6 0.00 0.00 0.00 73 1015.5
20260510142204 20 32 0.0 1.6 0.00 0.00 0.00 74 1015.5
20260510141704 20 274 0.0 1.6 0.00 0.00 0.00 75 1015.5
20260510140703 18 342 1.6 4.8 0.00 0.00 0.00 75 1015.4
20260510140203 18 18 3.2 9.7 0.00 0.00 0.00 76 1015.3
20260510135704 18 67 1.6 4.8 0.00 0.00 0.00 77 1015.1
20260510135204 18 10 1.6 4.8 0.00 0.00 0.00 77 1015.1
20260510134704 17 7 1.6 4.8 0.00 0.00 0.00 78 1015.0
20260510134203 17 8 3.2 4.8 0.00 0.00 0.00 77 1014.9
20260510133703 17 353 3.2 8.0 0.00 0.00 0.00 77 1014.7
20260510131204 17 314 0.0 3.2 0.00 0.00 0.00 78 1014.2
20260510130203 16 319 1.6 4.8 0.00 0.00 0.00 79 1014.0
20260510125703 16 45 1.6 8.0 0.00 0.00 0.00 78 1014.0
20260510125203 16 50 1.6 4.8 0.00 0.00 0.00 79 1014.0
20260510124703 16 45 0.0 3.2 0.00 0.00 0.00 80 1013.7
20260510124203 16 336 3.2 4.8 0.00 0.00 0.00 82 1013.8
20260510123703 16 64 0.0 1.6 0.00 0.00 0.00 83 1013.5
20260510123203 16 64 0.0 1.6 0.00 0.00 0.00 82 1013.4
20260510122703 16 86 0.0 3.2 0.00 0.00 0.00 82 1013.3
20260510122203 16 73 0.0 1.6 0.00 0.00 0.00 83 1013.3
20260510121703 16 73 0.0 3.2 0.00 0.00 0.00 83 1013.3
20260510121203 16 45 1.6 3.2 0.00 0.00 0.00 83 1013.5
20260510120704 16 45 1.6 3.2 0.00 0.00 0.00 82 1013.4
20260510120203 16 15 0.0 4.8 0.00 0.00 0.00 82 1013.4
20260510115703 17 16 1.6 3.2 0.00 0.00 0.00 83 1013.2
20260510115203 17 180 0.0 1.6 0.00 0.00 0.00 82 1013.0
20260510114203 16 175 0.0 0.0 0.00 0.00 0.00 81 1012.9
20260510113703 16 175 0.0 3.2 0.00 0.00 0.00 81 1012.9
20260510113203 16 205 1.6 3.2 0.00 0.00 0.00 82 1012.9
20260510112703 16 132 0.0 3.2 0.00 0.00 0.00 81 1012.8
20260510112204 16 79 0.0 0.0 0.00 0.00 0.00 81 1012.7
20260510111704 16 79 0.0 0.0 0.00 0.00 0.00 80 1012.7
20260510111204 16 79 0.0 0.0 0.00 0.00 0.00 80 1012.7
20260510110704 16 79 0.0 0.0 0.00 0.00 0.00 80 1012.8
20260510110204 16 79 0.0 0.0 0.00 0.00 0.00 80 1012.7
20260510105203 16 79 0.0 0.0 0.00 0.00 0.00 79 1012.8
20260510104703 16 79 0.0 0.0 0.00 0.00 0.00 79 1012.7
20260510104204 16 79 0.0 0.0 0.00 0.00 0.00 79 1012.6
20260510103704 16 79 0.0 0.0 0.00 0.00 0.00 80 1012.7
20260510103204 16 79 0.0 0.0 0.00 0.00 0.00 79 1012.6
20260510102704 16 79 0.0 0.0 0.00 0.00 0.00 78 1012.6
20260510102204 16 79 0.0 0.0 0.00 0.00 0.00 78 1012.7
20260510101704 16 79 0.0 0.0 0.00 0.00 0.00 76 1012.7
20260510101204 16 79 0.0 0.0 0.00 0.00 0.00 76 1012.5
20260510100704 16 79 0.0 0.0 0.00 0.00 0.00 77 1012.5
20260510100203 16 79 0.0 0.0 0.00 0.00 0.00 77 1012.5
20260510095703 16 79 0.0 0.0 0.00 0.00 0.00 77 1012.4
20260510095203 16 79 0.0 0.0 0.00 0.00 0.00 76 1012.1
20260510094704 16 79 0.0 0.0 0.00 0.00 0.00 75 1012.0
20260510094204 16 79 0.0 0.0 0.00 0.00 0.00 74 1011.9
20260510093704 16 79 0.0 0.0 0.00 0.00 0.00 73 1011.8
20260510093204 16 79 0.0 0.0 0.00 0.00 0.00 72 1012.0
20260510092704 16 79 0.0 0.0 0.00 0.00 0.00 72 1011.9
20260510092204 16 79 0.0 0.0 0.00 0.00 0.00 73 1011.8
20260510091703 16 79 0.0 0.0 0.00 0.00 0.00 73 1011.8
20260510090703 16 79 0.0 0.0 0.00 0.00 0.00 74 1011.8
20260510090204 16 79 0.0 0.0 0.00 0.00 0.00 74 1011.9
20260510085704 16 79 0.0 0.0 0.00 0.00 0.00 75 1012.1
20260510085204 16 79 0.0 1.6 0.00 0.00 0.00 74 1012.0
20260510084203 15 79 0.0 0.0 0.00 0.00 0.00 75 1011.8
20260510083704 15 79 0.0 0.0 0.00 0.00 0.00 74 1012.0
20260510083204 15 79 0.0 0.0 0.00 0.00 0.00 74 1012.0
20260510082703 16 46 0.0 0.0 0.00 0.00 0.00 74 1011.8
20260510081704 16 38 1.6 4.8 0.00 0.00 0.00 74 1011.5
20260510081204 16 63 0.0 3.2 0.00 0.00 0.00 74 1011.6
20260510080703 16 59 1.6 3.2 0.00 0.00 0.00 74 1011.7
20260510080204 16 28 1.6 1.6 0.00 0.00 0.00 74 1011.7
20260510075704 16 344 3.2 4.8 0.00 0.00 0.00 74 1011.6
20260510075204 16 57 0.0 3.2 0.00 0.00 0.00 74 1011.8
20260510074203 16 332 1.6 4.8 0.00 0.00 0.00 71 1011.7
20260510073704 16 43 3.2 4.8 0.00 0.00 0.00 68 1011.7
20260510073204 16 179 1.6 1.6 0.00 0.00 0.00 69 1011.5
20260510072703 16 184 0.0 0.0 0.00 0.00 0.00 68 1011.3
20260510072203 16 184 0.0 0.0 0.00 0.00 0.00 68 1011.2
20260510071704 16 184 0.0 0.0 0.00 0.00 0.00 67 1011.1
20260510071204 16 184 0.0 0.0 0.00 0.00 0.00 68 1011.0
20260510070204 16 199 0.0 1.6 0.00 0.00 0.00 69 1011.1
20260510065704 16 181 0.0 0.0 0.00 0.00 0.00 69 1011.1
20260510065204 16 127 0.0 1.6 0.00 0.00 0.00 70 1011.1
20260510064204 16 97 0.0 0.0 0.00 0.00 0.00 71 1011.2
20260510063704 16 97 0.0 0.0 0.00 0.00 0.00 69 1011.3
20260510063204 17 97 0.0 1.6 0.00 0.00 0.00 67 1011.4
20260510062704 17 97 0.0 0.0 0.00 0.00 0.00 65 1011.4
20260510062204 17 202 0.0 1.6 0.00 0.00 0.00 65 1011.4
20260510061203 17 196 0.0 1.6 0.00 0.00 0.00 62 1011.4
20260510060704 17 196 0.0 0.0 0.00 0.00 0.00 62 1011.4
20260510060204 17 196 0.0 0.0 0.00 0.00 0.00 62 1011.4
20260510055704 17 196 0.0 0.0 0.00 0.00 0.00 62 1011.4
20260510055204 17 196 0.0 0.0 0.00 0.00 0.00 62 1011.4
20260510054704 17 196 0.0 0.0 0.00 0.00 0.00 62 1011.3
20260510054204 17 196 0.0 0.0 0.00 0.00 0.00 62 1011.4
20260510053704 17 196 0.0 0.0 0.00 0.00 0.00 62 1011.4
20260510053204 17 196 0.0 0.0 0.00 0.00 0.00 63 1011.4
20260510052704 17 196 0.0 0.0 0.00 0.00 0.00 65 1011.3
20260510051204 17 196 0.0 0.0 0.00 0.00 0.00 68 1011.3
20260510050704 16 196 0.0 0.0 0.00 0.00 0.00 69 1011.2
20260510045704 16 196 0.0 0.0 0.00 0.00 0.00 70 1011.0
20260510045203 16 196 0.0 0.0 0.00 0.00 0.00 71 1011.1
20260510044203 16 196 0.0 0.0 0.00 0.00 0.00 71 1011.2
20260510043703 16 196 0.0 0.0 0.00 0.00 0.00 71 1011.1
20260510043203 16 196 0.0 0.0 0.00 0.00 0.00 70 1011.1
20260510042703 17 196 0.0 0.0 0.00 0.00 0.00 69 1011.1
20260510042203 17 219 0.0 0.0 0.00 0.00 0.00 67 1011.1
20260510041703 18 219 0.0 0.0 0.00 0.00 0.00 64 1011.0
20260510041203 18 219 0.0 0.0 0.00 0.00 0.00 64 1010.9
20260510040704 18 219 0.0 0.0 0.00 0.00 0.00 63 1010.7
20260510040204 18 219 0.0 0.0 0.00 0.00 0.00 62 1010.7
20260510035703 18 219 0.0 0.0 0.00 0.00 0.00 61 1010.7
20260510035203 18 219 0.0 0.0 0.00 0.00 0.00 61 1010.7
20260510034704 18 219 0.0 0.0 0.00 0.00 0.00 61 1010.7
20260510034204 18 219 0.0 0.0 0.00 0.00 0.00 61 1010.7
20260510033704 19 219 0.0 0.0 0.00 0.00 0.00 60 1010.6
20260510033204 19 219 0.0 0.0 0.00 0.00 0.00 60 1010.5
20260510032704 19 219 0.0 0.0 0.00 0.00 0.00 58 1010.5
20260510031703 20 219 0.0 0.0 0.00 0.00 0.00 58 1010.6
20260510031203 20 219 0.0 0.0 0.00 0.00 0.00 58 1010.6
20260510030703 20 219 0.0 0.0 0.00 0.00 0.00 57 1010.5
20260510030203 20 219 0.0 0.0 0.00 0.00 0.00 57 1010.3
20260510025703 20 219 0.0 0.0 0.00 0.00 0.00 57 1010.0
20260510024704 19 219 0.0 0.0 0.00 0.00 0.00 58 1010.0
20260510024204 19 219 0.0 0.0 0.00 0.00 0.00 58 1009.9
20260510023704 19 219 0.0 0.0 0.00 0.00 0.00 58 1009.7
20260510022703 19 219 0.0 0.0 0.00 0.00 0.00 58 1009.6
20260510022203 20 219 0.0 0.0 0.00 0.00 0.00 55 1009.5
20260510021703 20 219 0.0 0.0 0.00 0.00 0.00 54 1009.4
20260510021203 20 219 0.0 0.0 0.00 0.00 0.00 54 1009.3
20260510020703 20 219 0.0 0.0 0.00 0.00 0.00 52 1009.1
20260510020204 20 219 0.0 0.0 0.00 0.00 0.00 52 1009.0
20260510014203 21 219 0.0 0.0 0.00 0.00 0.00 52 1008.7
20260510013703 21 250 0.0 0.0 0.00 0.00 0.00 51 1008.7
20260510013203 21 263 0.0 0.0 0.00 0.00 0.00 48 1008.5
20260510012704 22 264 0.0 0.0 0.00 0.00 0.00 47 1008.4
20260510012204 22 264 0.0 0.0 0.00 0.00 0.00 46 1008.5
20260510011204 23 264 0.0 0.0 0.00 0.00 0.00 44 1008.3
20260510010203 24 264 0.0 0.0 0.00 0.00 0.00 42 1008.2
20260510005704 25 264 0.0 0.0 0.00 0.00 0.00 42 1008.3
20260510005204 26 264 0.0 0.0 0.00 0.00 0.00 42 1008.2
20260510004704 26 261 0.0 0.0 0.00 0.00 0.00 41 1008.1
20260510004204 26 258 0.0 0.0 0.00 0.00 0.00 40 1008.1
20260510003704 27 258 0.0 0.0 0.00 0.00 0.00 39 1008.1
20260510003204 28 258 0.0 0.0 0.00 0.00 0.00 38 1008.0
20260510002204 29 258 0.0 0.0 0.00 0.00 0.00 36 1007.8
20260510001204 30 258 0.0 0.0 0.00 0.00 0.00 36 1008.0
20260510000704 30 258 0.0 0.0 0.00 0.00 0.00 34 1007.9
20260510000204 31 258 0.0 0.0 0.00 0.00 0.00 34 1007.9
20260509235703 30 258 0.0 0.0 0.00 0.00 0.00 31 1008.0
20260509234203 30 258 0.0 0.0 0.00 0.00 0.00 33 1008.0
20260509233703 30 258 0.0 0.0 0.00 0.00 0.00 33 1008.0
20260509233203 30 258 0.0 0.0 0.00 0.00 0.00 32 1008.0
20260509232703 30 258 0.0 0.0 0.00 0.00 0.00 36 1008.0
20260509231703 30 234 0.0 1.6 0.00 0.00 0.00 34 1008.0
20260509231204 30 233 0.0 1.6 0.00 0.00 0.00 33 1008.1
20260509230704 30 237 0.0 1.6 0.00 0.00 0.00 30 1008.0
20260509230203 30 237 0.0 1.6 0.00 0.00 0.00 33 1008.0
20260509225703 29 238 0.0 1.6 0.00 0.00 0.00 33 1008.0
20260509224704 28 274 1.6 3.2 0.00 0.00 0.00 34 1008.0
20260509224204 28 342 3.2 4.8 0.00 0.00 0.00 32 1008.0
20260509223704 28 274 1.6 8.0 0.00 0.00 0.00 32 1008.0
20260509223204 28 276 3.2 8.0 0.00 0.00 0.00 34 1008.0
20260509222704 29 9 3.2 4.8 0.00 0.00 0.00 32 1007.9
20260509222204 29 257 0.0 3.2 0.00 0.00 0.00 34 1008.0
20260509221704 29 331 0.0 3.2 0.00 0.00 0.00 34 1008.0
20260509221204 29 243 1.6 4.8 0.00 0.00 0.00 35 1008.1
20260509220703 29 252 1.6 4.8 0.00 0.00 0.00 34 1008.0
20260509220204 29 3 1.6 3.2 0.00 0.00 0.00 34 1008.0
20260509215703 28 261 1.6 9.7 0.00 0.00 0.00 37 1008.1
20260509215203 29 255 1.6 4.8 0.00 0.00 0.00 34 1008.0
20260509214704 29 257 0.0 3.2 0.00 0.00 0.00 32 1008.1
20260509214204 28 347 0.0 4.8 0.00 0.00 0.00 32 1008.1
20260509213703 28 250 1.6 8.0 0.00 0.00 0.00 34 1008.1
20260509213203 29 268 4.8 11.3 0.00 0.00 0.00 33 1008.1
20260509212703 30 96 0.0 1.6 0.00 0.00 0.00 34 1008.1
20260509212204 29 241 0.0 1.6 0.00 0.00 0.00 32 1008.1
20260509211203 29 273 1.6 4.8 0.00 0.00 0.00 32 1008.2
20260509210704 29 253 1.6 4.8 0.00 0.00 0.00 32 1008.2
20260509205704 30 217 0.0 3.2 0.00 0.00 0.00 34 1008.2
20260509205204 29 261 3.2 4.8 0.00 0.00 0.00 33 1008.3
20260509204704 29 291 1.6 4.8 0.00 0.00 0.00 32 1008.3
20260509204203 28 94 0.0 3.2 0.00 0.00 0.00 32 1008.3
20260509203703 28 288 0.0 3.2 0.00 0.00 0.00 33 1008.4